Wind_Speed
4 5 7 10 12 13 14 16 17 17 16 15 14 14 14 13 11 10 10 10 9 7 7 6 6 6 6 7 8 9 9 9 9 9 9 8 8 8 8 9 9 10 11 13 14 15 17 17 17 17 17 17 16 16 17 19 20 19 16 15 14 13 13 12 12 11 10 9 10 10 8 9 9 9 9 9 9 9 8 8 9 9 9 10 12
5 6 7 9 12 14 15 17 17 17 17 16 15 15 15 14 13 12 12 11 10 9 8 7 7 6 6 6 7 8 9 9 9 9 9 8 8 9 8 9 9 10 11 13 15 16 18 18 18 19 19 18 17 18 18 19 21 20 18 16 14 14 14 12 12 11 10 10 11 10 7 8 9 9 9 10 10 9 8 9 9 10 10 11 13
7 7 7 9 11 14 16 17 18 18 17 17 16 16 16 15 14 14 13 12 11 10 9 8 7 6 6 6 6 7 8 9 9 9 8 8 8 9 9 9 9 10 11 13 15 16 18 19 19 20 20 19 18 18 18 19 20 19 17 16 15 15 14 12 12 13 13 13 12 10 8 8 8 9 9 9 9 8 8 9 10 10 11 12 13
8 8 9 9 11 14 17 18 18 18 18 18 17 17 17 16 16 15 14 13 12 11 10 8 7 6 6 6 6 6 8 8 9 9 8 8 8 9 8 9 9 9 10 12 15 16 18 19 20 21 21 20 19 18 18 19 19 18 16 14 14 14 15 14 13 14 15 14 13 11 9 8 9 10 10 9 9 9 10 11 12 11 13 14 14
8 9 10 10 11 13 17 19 19 19 19 18 18 17 18 17 17 16 15 14 13 11 10 9 8 7 6 6 6 6 7 8 8 8 8 8 8 9 8 8 9 9 10 12 14 16 18 19 20 21 21 21 20 19 18 18 18 18 16 14 14 14 15 15 14 13 13 13 13 12 11 10 10 10 10 11 11 12 13 13 13 13 14 15 15
9 10 10 11 11 13 17 20 20 20 20 19 18 18 18 18 17 17 16 14 13 11 10 9 9 8 7 6 6 6 7 8 8 9 8 9 9 8 8 8 9 9 10 12 14 16 17 18 19 21 21 21 20 19 18 17 17 17 16 15 14 14 14 14 14 13 12 12 12 12 11 11 12 12 12 13 13 13 13 14 14 15 16 16 16
10 11 11 11 12 13 16 20 21 20 20 20 19 18 19 18 18 18 16 14 13 12 11 10 10 9 8 7 7 7 7 8 8 9 9 9 9 9 8 8 9 9 9 11 13 15 16 17 19 20 21 22 21 20 18 17 16 15 15 14 13 12 13 13 13 13 12 12 13 13 12 12 13 13 13 14 14 14 14 14 15 16 17 17 17
11 12 12 12 13 14 17 20 21 21 20 20 19 19 19 19 19 18 16 15 13 13 12 11 11 10 9 8 8 7 8 8 9 9 9 9 9 9 9 9 8 8 9 11 13 14 15 16 17 19 21 21 22 21 19 17 15 15 14 14 13 12 12 13 13 13 12 13 14 15 15 15 16 15 15 16 16 16 17 17 18 18 18 18 19
13 13 13 14 14 16 17 19 21 21 20 20 20 19 19 19 19 18 16 15 15 14 13 12 12 11 10 9 8 8 9 9 10 10 10 10 10 9 9 9 8 8 9 10 12 13 14 15 16 18 20 21 21 21 20 18 17 16 16 16 15 14 14 14 15 15 16 17 18 19 20 20 21 21 20 21 21 21 22 22 23 23 23 23 23
17 16 16 15 16 18 18 19 20 20 20 20 20 20 20 20 19 17 16 16 16 16 14 14 13 12 10 9 9 9 9 10 11 11 10 11 10 10 10 10 9 8 9 10 11 12 13 13 14 16 18 19 20 21 21 20 19 20 19 19 18 18 18 19 19 20 21 22 23 23 23 23 24 23 23 23 24 24 25 26 26 26 26 26 26
18 18 18 17 17 19 19 19 20 20 19 20 20 20 20 20 18 17 17 17 17 16 15 14 13 12 10 10 9 10 10 11 12 12 11 11 11 11 11 10 10 9 9 10 11 12 12 12 13 15 16 17 18 19 19 20 21 22 21 21 21 21 22 22 22 23 24 24 24 24 23 24 24 23 23 23 24 24 25 26 26 26 26 26 26
18 18 18 18 18 19 20 19 19 19 19 19 21 21 21 20 18 18 17 17 17 16 16 15 13 12 11 10 10 11 12 13 13 13 12 12 12 12 12 11 11 9 9 10 11 11 11 12 12 13 14 15 16 17 18 19 19 20 20 20 21 21 22 22 22 23 24 24 24 23 23 23 23 22 22 23 24 24 24 25 25 25 25 25 25
16 17 17 17 17 18 19 18 18 18 19 20 21 21 21 20 19 18 18 18 18 17 16 15 13 12 12 11 11 11 13 14 14 13 13 12 12 13 13 12 11 10 10 10 10 10 11 12 12 12 12 13 14 15 17 17 17 17 17 19 20 21 21 21 22 22 23 23 23 23 23 23 22 21 22 22 23 23 23 24 24 24 24 24 24
14 14 14 15 16 17 17 16 17 18 19 20 21 21 20 20 19 19 19 18 18 17 15 15 14 14 13 12 12 12 13 15 15 14 13 13 13 13 13 13 12 11 10 10 10 10 11 11 11 11 11 11 12 14 16 16 16 17 17 18 20 20 20 20 21 22 22 22 21 21 22 21 20 20 20 21 21 21 21 22 23 23 23 22 22
12 12 12 13 14 14 15 16 17 19 20 21 21 21 20 20 20 20 20 19 17 16 15 16 16 15 14 12 12 13 14 15 15 15 14 14 14 13 13 14 14 13 11 10 10 10 11 11 11 10 10 11 11 13 14 15 16 17 18 18 18 19 18 18 19 20 20 20 20 19 20 19 18 18 18 19 19 19 19 20 20 21 21 21 21
10 9 10 10 12 13 15 17 18 20 20 20 21 20 21 21 21 21 19 17 16 16 17 17 16 15 14 13 13 13 14 14 14 15 15 15 14 14 14 15 14 14 13 11 11 11 11 11 11 10 10 10 10 11 13 15 16 16 17 17 16 16 16 16 17 17 18 18 17 18 17 16 16 16 16 17 17 17 17 18 18 18 19 19 18
8 9 10 10 11 13 15 18 19 20 20 20 20 20 21 21 20 20 18 16 15 17 17 17 16 15 15 14 13 13 13 13 14 15 16 16 15 15 15 15 15 15 14 12 11 11 11 11 11 11 10 10 10 10 12 14 15 15 15 15 14 14 14 14 15 15 15 15 15 15 15 14 14 15 15 15 15 15 15 16 16 16 16 16 16
8 9 11 11 11 12 14 16 18 19 19 19 19 19 19 19 19 18 16 15 16 17 17 16 15 15 15 14 13 12 12 12 14 16 17 17 16 16 16 16 15 15 15 14 12 12 11 11 11 11 10 10 10 9 10 12 13 14 13 12 12 12 12 13 13 13 13 13 13 13 13 13 13 13 13 13 13 14 14 14 14 14 15 15 15
9 10 10 10 10 11 13 14 15 15 15 14 15 17 17 18 17 16 15 16 17 17 17 16 15 15 15 14 13 12 11 12 14 15 17 18 17 18 17 16 16 16 16 15 14 13 12 12 11 11 10 10 9 9 9 10 11 13 12 10 10 10 10 11 11 11 11 11 11 11 12 12 11 11 12 12 12 12 12 12 13 13 13 13 13
9 9 9 9 10 10 11 11 10 9 9 11 13 14 15 15 15 15 16 17 17 17 16 16 15 15 14 14 13 11 11 12 13 14 16 18 19 19 19 18 17 17 17 16 15 14 13 12 12 11 11 10 10 10 9 9 10 11 11 9 8 8 8 8 8 9 9 9 9 9 10 10 10 9 9 9 9 9 10 10 10 10 10 10 10
7 7 4 3 5 5 5 3 4 5 7 9 11 11 13 13 14 15 16 17 17 17 15 15 15 14 14 14 12 11 11 12 12 14 15 18 20 21 21 19 19 18 18 17 16 15 14 13 13 12 12 11 11 11 10 9 9 9 9 9 8 7 6 6 6 5 6 6 6 6 6 7 7 7 6 6 6 6 6 7 7 7 7 8 7
6 5 3 3 3 1 2 5 5 5 8 10 9 10 11 12 14 15 16 17 16 15 14 14 14 14 14 13 12 12 12 12 13 13 14 17 20 23 22 21 20 20 19 18 18 17 16 14 14 14 13 12 12 11 10 8 7 7 8 8 7 6 6 5 5 4 4 4 4 4 4 4 4 4 4 3 3 3 3 3 4 4 4 4 4
5 3 3 4 6 4 2 3 7 9 11 15 16 15 14 13 14 15 16 16 14 13 13 13 13 13 12 12 11 11 12 12 13 13 14 15 19 23 24 23 22 21 20 19 19 18 17 16 15 15 14 14 13 12 11 10 8 8 7 7 6 6 5 5 5 6 6 6 6 5 5 5 4 4 3 3 2 1 1 0 1 1 1 1 1
7 4 5 8 8 7 4 2 2 4 10 16 20 21 18 15 14 15 16 15 12 11 11 12 11 12 12 11 11 11 11 12 12 13 13 14 16 21 24 24 23 22 21 21 20 19 18 18 17 16 16 15 14 13 13 12 10 9 8 7 7 6 6 8 9 9 9 9 9 8 8 8 7 7 6 5 4 3 3 2 2 2 2 2 2
9 8 8 8 6 6 6 5 3 6 10 13 17 19 18 17 15 15 15 13 11 10 11 11 11 12 12 11 11 11 11 11 12 13 13 14 15 18 23 25 24 23 23 22 21 20 19 19 18 18 17 16 15 15 14 14 13 11 10 9 9 8 9 11 11 13 13 12 12 11 11 11 10 9 9 8 8 7 6 5 5 5 5 5 5
12 11 12 8 4 5 3 2 1 6 9 12 15 17 17 17 15 14 13 11 10 10 10 10 11 12 11 10 10 10 10 11 12 13 13 14 15 17 21 24 25 24 23 22 22 21 20 20 19 18 18 17 16 16 15 15 15 14 12 11 11 10 11 13 13 14 15 15 15 14 14 13 13 12 11 11 11 10 9 8 8 7 7 7 7
12 10 7 6 6 6 6 4 4 7 8 11 14 16 17 17 15 14 12 10 9 9 9 9 11 11 11 10 10 10 11 11 12 13 13 14 15 16 18 22 24 24 23 23 23 22 21 21 20 19 18 17 17 16 16 16 17 16 14 13 13 13 14 14 14 15 16 16 16 16 16 16 16 15 14 13 13 13 12 11 10 10 9 9 9
11 8 6 7 8 8 7 6 6 8 8 10 12 14 16 16 15 15 13 11 10 10 10 10 10 10 10 11 11 11 11 12 12 13 13 13 14 14 15 20 23 24 23 23 23 23 22 21 20 20 19 19 18 17 17 17 18 17 15 15 15 15 15 16 17 19 20 22 22 20 19 18 18 18 18 16 15 15 14 14 13 12 11 11 11
10 9 9 9 9 8 7 7 7 8 8 8 10 13 15 15 15 15 14 12 11 11 11 11 10 10 11 11 11 11 11 12 13 13 13 13 14 14 14 17 21 23 23 23 24 23 23 21 21 20 20 20 18 17 18 19 18 18 17 16 15 14 16 18 19 21 22 23 25 25 23 22 20 20 20 19 18 17 16 15 15 15 14 13 13
9 10 11 11 9 8 7 8 8 8 8 8 9 12 14 15 15 15 14 12 12 12 12 11 10 10 11 11 11 11 12 13 13 13 13 13 13 13 14 14 17 20 21 23 23 23 22 21 21 21 21 20 18 18 18 19 18 17 17 16 16 16 18 18 18 20 20 18 19 21 21 20 19 19 21 21 19 19 18 17 17 16 16 15 14
9 10 11 11 9 9 8 8 9 9 9 9 9 10 13 14 15 15 14 13 13 12 12 12 11 11 12 12 11 11 13 13 14 13 13 13 13 13 13 13 14 16 19 21 22 21 21 21 21 20 20 19 18 17 18 18 17 15 15 16 17 18 18 18 18 17 16 13 13 14 16 17 17 18 19 19 19 19 19 19 18 17 17 16 15
10 11 11 11 9 9 9 9 9 9 10 10 10 10 12 14 16 16 15 14 14 13 13 13 12 12 13 12 11 12 13 13 13 14 14 13 13 12 13 13 13 15 17 19 20 20 20 20 20 19 18 18 17 16 17 17 16 15 15 17 18 18 17 16 15 13 12 11 12 12 15 17 19 19 19 18 18 18 18 18 18 18 17 17 16
10 11 11 10 9 9 10 9 10 11 11 12 12 12 13 15 17 17 17 16 15 15 14 14 13 13 13 12 11 12 12 13 14 15 14 14 13 13 13 13 13 14 16 17 18 18 19 18 17 17 17 17 16 16 16 16 15 15 16 17 17 17 15 14 13 12 12 12 13 14 15 17 19 19 19 18 17 17 17 17 17 18 17 17 16
10 10 10 10 10 10 10 10 10 11 13 14 14 15 15 17 19 19 18 17 16 16 16 16 15 14 13 12 11 12 13 14 15 15 14 14 13 14 14 13 13 14 15 15 17 16 16 16 16 15 15 15 15 15 15 15 15 15 15 16 15 15 14 12 12 13 13 13 14 15 15 16 17 18 18 17 17 16 16 16 16 17 17 17 16
10 11 11 10 10 10 10 11 11 12 14 15 15 17 18 19 20 21 20 19 18 17 17 17 16 14 14 12 12 13 14 15 16 14 14 14 14 15 15 14 14 14 15 15 15 15 15 15 14 13 13 14 15 15 15 14 14 14 13 14 14 13 12 11 11 11 11 13 14 14 15 16 16 16 16 16 15 15 15 15 15 15 15 15 15
13 13 12 12 12 11 11 12 12 13 15 15 15 17 20 20 21 21 21 20 19 17 17 17 15 15 14 13 13 14 14 16 16 15 14 14 15 15 15 15 15 16 16 15 14 14 14 13 13 13 14 15 15 15 14 13 12 12 12 12 12 11 11 10 10 10 10 11 12 13 14 14 15 15 15 15 15 14 14 14 14 14 14 14 14
15 14 14 13 13 12 13 14 14 14 16 14 14 18 20 20 21 22 22 20 20 18 17 16 16 15 15 14 14 14 15 16 16 15 14 15 16 15 15 16 16 16 15 15 15 14 14 14 14 15 16 16 15 14 12 11 10 10 11 12 12 11 11 11 10 10 10 11 12 13 13 13 14 14 13 13 13 12 12 12 12 12 13 13 13
17 15 15 14 14 14 15 17 17 16 14 10 13 18 19 19 22 23 22 21 21 19 17 16 16 15 15 15 15 14 15 17 16 15 15 17 17 16 16 17 17 16 15 15 15 14 13 13 15 16 15 14 13 12 11 10 9 9 10 11 11 11 10 11 10 9 9 10 11 11 12 12 12 13 13 12 12 11 11 11 11 11 11 11 11
17 16 15 15 15 15 17 20 19 17 12 8 14 19 18 18 23 25 24 25 22 19 18 17 16 15 15 15 15 15 16 17 17 15 16 18 18 18 17 17 16 15 15 15 13 11 12 13 15 15 14 13 11 11 10 9 9 8 9 10 11 10 10 10 9 8 8 8 9 9 10 10 10 10 11 11 11 11 10 10 10 9 9 9 8
16 16 16 16 16 17 20 22 21 17 11 9 14 18 17 17 22 24 25 26 22 19 18 17 17 16 16 15 15 16 17 18 18 17 17 18 18 18 17 16 15 14 14 14 12 11 13 14 15 15 13 12 11 10 10 10 9 8 8 9 10 10 9 8 7 7 7 7 8 8 8 8 8 7 7 8 9 9 8 8 8 8 8 8 7
15 16 17 18 17 19 22 23 22 18 11 11 12 15 18 19 20 22 26 26 23 21 20 18 17 16 16 16 16 18 19 19 19 19 18 18 17 16 16 15 14 13 14 14 12 13 14 15 15 14 13 11 11 11 11 10 9 8 8 9 9 8 7 7 7 6 6 5 6 7 7 7 7 6 6 7 7 7 8 8 8 8 7 7 6
15 16 17 19 19 20 23 23 22 18 13 11 10 14 19 19 19 22 26 27 24 22 20 18 16 15 16 17 18 19 20 20 20 20 19 17 16 15 15 15 14 14 14 14 14 15 16 16 15 14 13 12 11 12 11 10 9 9 9 8 8 7 6 6 6 6 5 4 6 8 8 8 7 7 7 7 7 6 7 7 7 7 6 6 5
14 15 17 19 19 21 23 23 21 18 13 10 10 14 18 18 20 22 23 23 23 22 20 18 16 16 17 18 19 20 20 20 20 21 19 17 17 16 16 16 14 14 15 15 15 16 16 16 15 14 13 12 12 12 12 11 10 9 8 8 7 7 6 5 5 5 4 4 4 6 7 7 6 6 7 6 6 5 5 6 6 5 5 4 4
12 13 15 18 20 22 23 21 19 17 13 9 10 14 17 16 18 20 19 20 23 23 20 17 16 17 17 18 20 20 20 21 21 21 19 18 18 17 17 16 15 15 16 16 17 16 16 16 15 14 13 12 12 12 11 11 11 10 8 8 7 7 6 5 5 5 4 4 5 6 7 8 7 6 6 5 5 5 4 5 5 5 4 3 3
11 12 14 17 20 22 22 21 17 14 12 11 11 14 15 12 14 18 21 24 24 22 19 16 16 17 17 18 18 20 21 22 22 21 20 20 20 19 17 16 16 17 17 17 17 17 16 15 14 13 12 12 11 11 11 11 11 10 9 8 7 7 6 5 5 5 5 6 7 8 8 9 9 8 7 6 6 5 4 4 4 4 4 3 2
9 11 14 17 20 21 21 19 14 10 11 11 12 14 12 9 11 15 19 22 21 20 18 16 15 15 16 17 18 20 22 23 23 22 22 22 21 20 18 17 17 18 18 18 18 16 15 14 13 13 13 12 12 12 12 11 10 10 9 8 7 7 7 6 5 5 5 6 8 8 8 8 8 8 7 6 6 6 5 3 3 3 4 3 2
8 9 13 16 17 18 18 15 10 7 9 10 11 11 10 9 10 12 14 16 16 17 17 17 17 16 17 19 19 20 22 23 24 23 22 21 20 20 18 18 19 19 18 18 17 15 14 14 14 13 13 13 12 12 12 11 10 9 8 8 8 8 7 6 6 5 5 6 7 8 8 8 7 7 6 6 6 5 4 3 3 3 3 3 3
11 12 13 14 15 16 16 13 9 8 8 7 7 8 8 7 9 11 13 14 14 16 17 18 20 19 19 20 21 21 22 23 23 21 20 20 20 20 19 19 19 19 18 17 16 14 14 14 13 12 12 13 12 13 13 11 10 10 9 9 9 8 8 7 7 6 6 7 7 7 7 8 8 7 7 7 6 5 4 4 4 4 3 3 3
16 16 16 16 15 15 16 17 14 10 8 6 4 4 5 6 8 9 10 11 12 15 18 19 20 20 20 21 21 22 23 23 22 21 20 20 21 21 20 18 19 19 17 16 15 14 13 13 12 12 12 12 13 14 13 12 12 11 11 10 9 9 8 7 7 7 7 8 7 6 7 7 7 7 7 6 5 5 4 4 5 6 5 4 4
22 22 21 20 16 14 16 19 19 13 10 7 4 4 5 5 7 8 11 12 11 15 17 17 19 20 21 22 22 22 23 23 22 22 21 22 21 20 18 17 18 18 17 16 15 14 14 14 13 13 13 13 13 13 13 12 12 12 11 11 10 9 8 7 7 7 7 8 7 6 7 6 7 7 6 5 5 6 5 5 7 8 7 6 5
27 26 26 22 16 13 14 18 20 15 11 9 6 6 5 4 5 7 12 13 12 14 18 19 19 20 21 23 23 24 25 24 23 23 22 21 19 18 17 17 17 16 16 15 14 14 14 14 13 13 13 13 13 13 13 12 12 12 11 11 11 10 10 9 9 9 8 8 7 7 8 8 8 8 7 7 7 7 7 8 9 8 7 6 5
Wind_Direction
208 217 209 200 197 192 193 194 196 198 198 196 194 194 192 191 191 191 188 185 184 178 170 159 154 154 151 143 133 126 121 116 112 108 106 105 103 99 94 85 76 71 69 69 68 67 67 65 65 67 69 69 72 82 91 103 113 117 114 109 111 110 107 111 111 112 105 96 96 99 102 97 92 88 82 78 74 72 69 65 61 58 60 68 75
192 202 200 199 199 196 195 197 198 199 200 199 198 197 196 194 194 195 191 188 187 184 176 164 158 156 155 150 140 133 127 122 118 114 112 111 108 102 96 88 80 74 71 71 70 69 68 66 66 66 67 70 74 84 94 103 114 122 123 116 110 111 113 111 110 113 107 101 99 97 94 83 80 81 81 77 72 68 63 60 60 64 70 77 81
191 191 195 201 200 200 198 198 200 200 201 201 201 200 199 197 197 197 193 191 190 186 178 169 162 161 162 159 152 142 134 130 126 122 119 116 112 105 98 91 85 78 75 74 72 70 69 68 68 67 67 69 75 85 97 104 109 112 113 113 108 108 112 113 116 119 114 106 100 92 83 80 81 82 82 77 72 69 67 68 68 71 77 80 83
200 197 202 205 202 203 200 200 200 201 202 203 203 202 201 199 200 199 195 193 191 187 180 174 170 169 170 170 166 153 144 138 133 129 126 122 116 109 104 97 91 83 79 76 74 72 70 69 69 68 68 69 75 84 95 102 105 105 107 113 113 112 116 119 121 121 117 111 104 97 91 91 91 87 83 80 79 79 77 77 76 78 80 82 84
206 209 210 210 206 206 202 201 200 201 203 204 204 203 203 201 203 202 198 195 192 187 182 181 179 179 179 182 179 166 155 147 141 137 134 128 121 114 110 103 96 89 84 80 76 74 72 71 70 69 69 69 74 81 90 100 108 113 115 118 121 121 120 118 115 112 108 104 103 102 98 95 91 87 86 86 86 85 83 82 83 83 84 85 86
209 214 214 213 208 207 204 202 201 202 203 204 206 204 204 204 205 205 202 198 193 188 186 187 187 188 187 190 188 177 166 158 152 145 142 134 127 121 116 110 103 96 89 85 80 77 74 72 72 71 70 71 73 79 85 93 101 108 111 113 116 116 113 110 106 103 99 97 97 98 96 93 90 90 92 93 92 90 89 89 88 87 87 88 89
217 220 221 217 211 208 206 204 202 201 203 205 206 206 206 206 207 206 204 200 196 194 192 192 192 193 193 195 192 187 178 169 161 152 148 141 133 128 122 116 110 103 95 90 85 80 76 74 73 72 71 71 73 76 82 87 93 97 99 102 104 103 103 103 103 102 101 102 102 102 100 97 94 93 95 96 96 95 95 93 91 89 89 91 91
228 226 228 225 215 208 206 205 203 202 203 205 206 208 209 209 209 207 206 203 201 200 197 196 196 197 196 196 194 195 188 176 169 161 155 147 140 136 131 124 119 111 102 95 90 85 81 77 75 74 74 73 74 75 78 82 87 91 91 92 96 99 100 102 106 105 104 104 103 103 101 100 98 97 96 96 97 97 97 95 93 92 91 91 90
236 233 235 232 220 211 206 205 204 202 203 204 207 209 211 212 211 209 207 205 205 205 202 200 200 200 198 197 199 202 195 183 177 171 161 153 147 144 139 133 129 120 111 103 96 92 87 81 78 77 77 76 76 76 76 78 81 86 89 90 95 99 102 105 107 107 105 103 100 99 98 98 97 96 95 96 97 96 96 94 93 92 91 90 90
238 239 238 234 223 212 206 204 203 202 203 205 208 211 214 215 214 212 210 209 209 206 205 204 203 203 201 200 204 207 202 191 184 178 168 159 155 153 147 141 138 130 121 113 105 99 93 87 83 80 80 80 79 79 78 80 82 86 90 94 97 100 102 104 104 104 103 101 99 97 97 96 95 95 95 95 96 95 94 93 92 91 91 90 90
236 237 236 231 220 210 205 201 200 201 203 206 209 212 215 217 217 215 214 213 212 209 208 207 206 205 204 204 209 210 206 198 190 182 174 167 162 160 153 148 146 140 131 123 115 108 102 95 89 86 85 84 82 82 82 84 88 92 97 100 101 102 102 102 102 102 102 100 99 97 97 96 95 95 96 96 95 94 93 92 92 91 91 91 91
232 233 231 225 213 204 201 197 197 201 205 208 210 213 216 218 218 217 216 215 214 212 210 208 206 207 207 208 211 211 209 203 194 187 181 175 170 166 159 156 154 151 143 133 126 118 112 103 97 94 92 89 87 88 87 87 91 97 101 103 103 102 102 102 103 102 101 99 98 98 97 95 95 96 97 96 94 93 93 93 93 93 93 92 92
225 226 224 215 206 199 197 195 196 202 206 209 211 213 215 218 219 218 218 217 215 213 210 207 206 209 210 211 211 212 212 207 199 193 188 182 177 171 163 162 162 159 154 144 136 128 120 111 107 106 103 98 95 94 93 93 95 97 98 99 100 100 101 102 102 101 99 98 98 98 97 96 96 97 97 96 95 94 94 95 95 94 93 92 91
216 215 210 200 195 193 193 196 199 204 207 209 211 212 215 218 220 220 219 216 213 212 211 210 209 211 212 213 212 214 214 209 205 200 195 188 182 177 168 168 170 167 162 154 146 138 127 120 119 117 114 109 104 101 98 98 98 97 96 97 99 100 102 102 102 101 100 99 98 98 97 96 96 97 96 95 95 95 95 95 94 94 93 91 90
206 199 194 190 191 192 193 196 200 203 205 207 209 212 215 219 220 220 219 214 214 216 218 217 213 212 213 215 215 215 215 212 210 205 202 194 186 183 176 173 176 173 170 165 155 147 136 130 130 128 125 120 113 108 106 105 104 101 99 99 101 104 104 104 103 102 101 99 99 97 95 95 96 95 94 93 93 94 93 93 93 92 91 90 89
195 186 180 183 187 191 194 195 198 201 203 206 209 213 217 219 221 221 220 217 219 223 223 221 216 214 216 218 218 216 214 214 213 210 208 200 189 186 183 180 180 178 177 174 165 156 146 143 142 139 135 130 124 119 114 111 109 106 105 104 105 106 105 104 102 100 99 99 99 97 95 95 96 96 94 93 92 92 92 91 91 90 90 89 87
176 165 163 172 182 189 194 196 197 200 203 206 210 216 220 223 226 225 223 222 225 228 227 223 219 218 220 221 221 217 215 215 216 214 211 205 193 188 190 187 185 183 182 181 176 166 157 156 155 150 147 143 137 132 125 118 113 110 111 112 110 109 108 106 103 101 99 99 99 98 98 98 98 97 96 94 93 93 92 91 90 89 88 86 85
160 154 157 169 180 189 196 201 204 207 209 212 217 221 226 228 230 228 227 230 230 230 228 225 222 221 221 223 223 219 215 214 216 215 213 208 196 192 195 193 190 189 186 185 184 177 170 169 166 163 161 157 153 147 137 127 121 117 117 117 116 115 113 111 108 106 105 104 103 103 103 102 100 100 98 97 96 94 92 91 89 87 86 85 83
146 155 160 174 186 195 200 207 212 217 220 223 230 233 236 236 236 236 236 236 233 231 228 225 224 222 222 223 223 220 216 214 216 217 215 210 199 196 199 197 196 195 191 189 188 185 181 179 176 174 175 173 170 165 155 143 133 128 123 120 120 121 119 117 116 114 112 111 110 109 107 105 103 102 101 99 97 95 93 91 89 86 84 83 81
143 157 165 180 188 198 204 213 220 228 235 239 246 248 250 250 249 246 242 239 235 232 229 226 222 221 222 224 225 222 221 219 218 218 216 209 200 199 202 200 200 200 196 192 191 191 189 187 184 184 186 187 187 184 177 166 152 144 139 136 138 138 132 126 126 123 120 119 116 115 113 111 108 106 104 102 99 97 94 91 89 87 84 82 79
161 156 150 171 185 199 201 227 252 246 249 249 254 258 257 258 254 249 246 242 237 234 230 227 222 221 224 226 228 225 224 221 218 219 217 209 201 201 204 203 203 203 201 196 194 196 195 194 192 192 194 198 200 201 198 189 172 160 158 160 161 163 161 150 145 139 135 134 130 127 126 124 121 115 110 106 103 100 97 94 90 88 86 83 80
155 130 87 46 52 36 64 35 7 316 292 274 263 263 261 259 256 253 251 246 240 236 232 228 224 224 229 230 231 230 226 221 219 220 217 211 203 204 206 205 206 206 205 201 198 198 198 199 200 199 200 203 209 213 215 212 196 180 179 183 183 186 193 190 185 189 185 177 173 169 166 161 152 141 132 123 113 106 100 96 93 91 87 85 80
172 135 76 60 54 34 15 9 360 332 298 273 262 261 261 255 254 255 253 249 242 237 233 230 229 231 235 236 236 235 229 221 219 219 216 213 206 206 209 207 207 207 207 206 203 201 200 202 205 206 206 207 213 220 224 224 216 206 201 203 203 201 219 239 234 229 226 223 219 216 216 216 212 200 187 184 184 179 160 120 94 69 63 59 50
195 173 105 92 72 52 71 104 28 293 265 255 253 255 257 253 249 252 251 247 240 235 232 230 233 237 240 238 236 235 232 226 221 219 217 216 210 209 211 211 209 208 209 209 207 206 203 204 207 210 211 212 216 223 228 229 226 222 219 221 223 216 229 254 265 264 254 245 240 235 233 233 236 236 232 228 230 236 246 260 269 282 293 303 309
180 189 170 137 92 49 61 81 141 215 237 242 248 252 256 256 251 250 249 244 236 231 230 232 237 241 241 237 236 235 233 227 221 218 217 218 216 212 212 214 212 211 211 211 210 210 208 207 209 212 214 216 219 224 231 234 235 233 232 234 237 232 229 238 258 273 270 262 256 250 246 242 240 242 245 246 245 245 250 257 263 272 279 283 289
172 195 203 200 251 296 303 344 179 208 231 236 242 246 250 253 250 248 246 239 230 229 233 237 239 240 239 237 237 233 228 221 218 217 217 219 219 216 214 214 214 213 213 213 213 214 214 212 212 214 217 220 223 228 234 240 245 244 242 245 247 248 244 241 251 265 268 264 260 257 256 253 248 244 244 248 252 253 252 255 260 266 273 278 283
171 191 193 204 233 243 228 219 194 199 222 233 236 238 239 241 241 239 237 227 223 230 237 239 238 238 237 235 233 225 219 218 217 215 215 217 219 219 215 213 215 215 214 215 216 216 217 217 217 218 219 223 227 232 237 244 249 251 250 252 256 258 258 257 258 261 262 261 260 257 255 257 257 252 247 247 252 257 258 258 259 262 267 274 279
162 173 173 189 196 198 206 198 194 200 211 227 233 235 233 230 233 233 227 219 222 232 237 238 238 237 235 232 226 219 218 220 217 212 212 216 218 219 215 212 214 216 215 216 217 218 219 220 222 223 223 226 230 234 241 246 251 256 257 259 265 268 270 274 273 270 268 263 261 258 256 258 259 258 254 252 252 255 259 261 261 262 264 269 273
159 167 184 200 199 201 211 205 207 211 209 216 224 230 228 224 227 229 224 220 221 226 231 235 235 236 235 230 223 219 221 222 218 215 218 220 218 217 214 210 212 216 217 217 218 219 220 222 225 227 229 230 233 237 243 248 252 258 261 264 268 272 277 281 278 276 276 269 261 257 257 258 260 261 258 255 254 254 257 260 263 264 264 266 269
182 187 194 203 206 209 215 217 220 221 214 209 214 224 224 221 221 222 221 220 220 223 227 230 230 232 232 228 224 223 224 224 223 223 224 222 217 216 215 210 209 213 217 218 219 219 220 222 226 230 233 235 237 241 246 250 254 260 266 269 272 277 283 286 285 283 282 275 261 252 252 256 260 262 258 256 255 255 256 259 262 263 264 264 265
201 200 199 203 210 216 221 224 228 231 222 208 208 216 215 216 217 219 223 224 226 228 227 228 227 226 228 229 229 229 229 228 227 225 225 223 219 217 214 209 207 209 213 216 218 219 220 223 226 230 234 236 237 242 249 254 259 262 268 273 277 282 285 287 287 285 281 273 261 250 250 256 259 260 259 259 258 258 257 257 259 261 262 262 263
207 204 203 206 214 224 228 226 230 237 229 214 207 207 209 213 219 224 228 231 235 235 233 233 228 223 227 232 233 234 235 230 224 223 226 227 222 215 208 206 205 205 209 212 215 217 220 223 226 229 235 237 237 241 247 254 260 263 266 272 278 282 282 283 283 282 277 269 263 259 259 262 261 261 262 263 263 261 258 256 256 257 259 260 261
217 213 212 216 224 230 234 231 231 234 230 222 212 208 210 217 225 229 233 234 237 239 241 240 232 226 229 233 235 237 236 227 221 223 227 228 221 208 201 201 203 205 207 209 213 216 219 223 225 228 234 237 238 239 244 251 257 261 268 275 280 281 277 276 273 273 272 266 262 262 263 263 262 261 262 263 263 260 257 255 255 256 258 259 259
231 226 228 234 235 235 242 241 237 234 232 227 218 215 215 221 229 232 235 236 237 242 246 244 238 233 232 234 235 235 234 226 222 224 225 225 217 201 196 199 203 205 205 207 211 213 217 221 222 225 230 235 236 236 241 247 254 263 270 274 276 276 273 270 266 265 264 260 258 257 258 259 258 257 258 260 259 257 256 256 256 256 257 257 258
244 244 247 249 245 244 250 253 246 238 235 231 225 224 223 224 230 233 235 236 236 239 244 245 243 237 234 235 233 230 230 226 224 223 222 221 210 198 195 197 201 202 201 202 204 205 210 216 217 218 223 229 233 236 241 248 256 261 264 267 269 271 271 268 264 258 254 253 251 250 251 253 254 253 253 255 254 254 254 255 256 255 256 258 260
255 255 257 256 253 254 261 265 257 244 238 234 230 233 230 228 231 234 233 232 233 234 238 242 241 237 236 236 231 228 227 225 223 221 219 215 205 198 196 194 196 198 197 197 198 199 205 213 218 221 227 233 237 240 243 246 250 252 254 259 262 266 266 262 260 255 249 246 245 246 248 249 251 252 252 252 251 251 252 253 255 257 259 262 264
262 261 264 261 260 265 272 274 266 252 242 239 239 239 235 232 232 233 231 228 229 230 233 236 235 237 238 234 227 224 224 220 220 221 216 209 202 196 193 194 196 199 201 203 204 206 212 222 230 233 236 240 240 239 237 235 238 244 249 252 252 255 256 255 256 255 250 246 246 246 246 246 248 251 251 250 249 249 250 253 258 263 265 267 269
267 268 271 268 267 272 279 279 271 259 249 255 260 246 238 238 234 230 229 228 229 229 228 228 229 234 235 228 223 221 220 216 217 219 212 204 200 194 192 199 202 205 211 214 213 214 218 226 234 234 232 233 234 234 232 228 230 238 244 246 248 251 254 254 254 254 252 250 248 246 245 246 249 252 251 248 247 247 248 253 258 264 267 269 272
273 276 278 273 271 274 280 279 272 266 259 271 272 249 238 246 241 232 226 224 225 227 227 224 223 228 230 225 221 219 216 213 214 212 205 200 199 196 197 207 210 211 216 217 215 214 214 219 225 226 220 219 225 233 235 229 228 234 238 241 245 250 256 258 256 253 252 251 246 245 246 245 247 251 249 245 247 248 249 252 254 258 263 266 271
279 284 286 277 271 271 275 276 276 281 274 258 257 242 238 251 248 239 230 221 216 221 227 223 221 224 226 223 219 216 212 209 210 207 200 197 197 199 203 210 213 214 217 214 208 207 210 214 220 222 217 214 220 230 237 235 231 229 227 232 238 244 249 256 264 263 259 255 247 246 246 239 240 246 243 237 239 244 244 246 251 254 257 262 268
291 294 289 278 270 268 271 275 281 291 282 255 252 247 249 254 247 239 235 224 208 210 220 220 222 222 219 218 216 213 209 207 207 204 200 199 201 204 207 210 212 212 211 207 203 208 213 214 218 222 217 212 216 222 232 239 233 219 213 224 234 239 244 251 262 270 270 256 234 236 242 232 226 232 236 234 232 239 242 242 247 252 255 260 262
299 298 287 276 271 267 270 277 284 294 291 275 277 268 256 254 250 239 235 228 209 204 211 209 213 216 212 212 213 210 206 204 203 200 200 204 207 209 210 209 206 207 207 203 205 212 217 217 217 220 216 211 213 216 224 235 233 220 214 220 226 232 243 250 256 260 255 238 220 220 227 221 216 227 238 240 234 239 241 236 238 246 253 258 261
299 298 288 280 274 268 271 277 286 300 301 283 282 273 259 256 252 239 232 227 211 203 208 203 197 206 210 210 211 209 204 201 199 198 201 207 210 211 212 209 202 204 209 208 210 215 218 219 218 219 218 213 212 215 220 228 230 226 223 220 220 226 238 247 254 253 234 216 208 198 206 210 213 233 240 233 222 226 229 221 225 234 242 251 262
295 293 286 279 274 270 273 280 293 309 308 289 277 270 266 260 243 230 222 214 205 202 209 207 194 200 209 211 212 208 201 199 198 200 203 207 210 210 210 208 201 205 214 214 213 213 214 218 220 220 221 217 212 213 216 223 225 225 225 221 221 227 235 243 245 244 225 200 187 178 193 204 205 217 220 207 202 206 208 206 209 214 220 239 258
292 293 284 273 270 271 275 284 297 310 313 303 281 267 271 263 234 225 215 204 201 198 204 213 203 201 209 210 211 206 199 198 199 201 202 205 209 209 206 206 207 211 215 216 214 211 209 213 218 220 221 218 214 215 218 221 220 221 223 222 228 229 229 242 241 237 229 201 186 185 195 201 200 203 199 191 195 197 196 199 204 212 220 233 250
292 290 279 268 268 272 277 285 292 307 323 313 286 272 275 262 235 228 209 198 198 193 197 215 210 206 213 210 208 205 199 198 201 202 202 204 207 210 208 208 215 218 215 214 215 214 213 215 217 219 220 217 214 218 222 221 217 219 224 225 233 232 226 239 239 231 233 211 193 191 198 201 200 201 199 193 195 194 190 196 206 217 222 224 224
277 274 273 270 272 275 278 284 285 304 321 309 290 282 278 260 234 222 203 195 198 191 195 208 206 206 212 210 207 204 197 197 201 202 203 205 208 211 211 211 218 221 216 216 217 217 220 220 219 216 215 213 213 220 224 219 213 214 220 223 228 229 230 237 230 219 226 222 211 202 198 200 204 207 206 198 196 192 183 193 202 198 205 208 204
252 255 267 271 273 277 276 276 279 294 302 293 289 282 271 256 232 216 204 201 203 195 194 203 207 208 210 208 206 201 196 197 200 201 204 208 210 213 213 214 220 221 217 216 216 217 221 222 220 215 212 210 211 218 220 215 211 208 212 220 224 227 229 231 226 219 218 218 223 222 211 206 206 208 208 202 198 192 178 184 196 193 199 203 192
245 245 251 256 266 283 284 273 266 269 278 277 271 263 251 239 232 219 210 213 210 197 194 202 210 211 209 206 203 200 196 196 199 201 204 207 209 213 214 216 219 219 216 216 216 216 218 218 216 212 213 211 211 215 216 213 213 210 209 217 222 224 225 227 230 229 223 216 216 225 230 223 212 211 217 211 192 187 186 190 203 209 216 217 208
246 243 243 245 254 279 289 275 262 251 256 261 235 229 231 222 225 223 226 228 211 197 197 204 211 211 210 206 202 201 198 196 200 203 205 207 207 209 214 217 217 214 212 213 214 214 213 212 210 209 211 211 211 215 217 215 215 211 208 212 217 218 218 221 227 228 228 226 222 224 231 231 219 213 219 214 197 199 207 211 219 223 225 225 222
245 247 248 245 243 260 277 275 263 245 241 245 220 218 223 209 216 222 231 228 209 205 208 207 210 209 207 205 201 201 199 199 202 204 205 206 204 208 215 217 213 209 209 209 210 210 210 210 210 209 209 208 211 217 221 220 219 216 211 210 213 217 217 218 222 222 224 227 228 230 233 231 228 224 218 211 209 213 216 218 226 228 223 223 228
Height
3156 3157 3157 3159 3160 3162 3163 3164 3165 3167 3168 3168 3168 3169 3169 3170 3170 3170 3170 3171 3172 3172 3172 3172 3172 3172 3172 3172 3172 3172 3172 3172 3172 3172 3172 3173 3173 3172 3171 3171 3170 3169 3169 3168 3167 3166 3164 3163 3162 3161 3160 3160 3159 3158 3158 3159 3159 3160 3160 3160 3160 3160 3160 3161 3161 3161 3161 3160 3160 3160 3161 3161 3161 3162 3162 3162 3161 3161 3161 3161 3161 3161 3160 3159 3159
3156 3156 3157 3158 3160 3161 3162 3164 3165 3166 3167 3168 3168 3168 3169 3169 3170 3170 3170 3171 3171 3172 3172 3172 3172 3172 3172 3172 3172 3172 3172 3172 3173 3173 3173 3173 3173 3173 3172 3172 3171 3170 3169 3169 3168 3167 3166 3165 3164 3163 3162 3161 3160 3159 3160 3160 3161 3161 3161 3161 3161 3161 3161 3162 3162 3162 3162 3162 3162 3162 3162 3162 3162 3162 3162 3162 3161 3161 3161 3161 3161 3161 3161 3160 3160
3156 3156 3157 3158 3159 3160 3162 3163 3164 3166 3167 3167 3168 3168 3168 3169 3169 3169 3170 3170 3171 3172 3172 3172 3172 3172 3172 3172 3172 3173 3173 3173 3173 3173 3173 3174 3173 3173 3173 3172 3172 3171 3170 3170 3169 3168 3167 3166 3165 3164 3163 3162 3161 3161 3161 3161 3162 3162 3162 3162 3162 3162 3162 3163 3163 3163 3163 3163 3163 3163 3163 3163 3163 3162 3162 3162 3162 3162 3162 3162 3161 3161 3161 3161 3160
3156 3156 3157 3157 3158 3160 3161 3162 3164 3165 3166 3167 3167 3168 3168 3168 3169 3169 3170 3170 3171 3172 3172 3172 3173 3173 3173 3173 3173 3173 3173 3173 3173 3174 3174 3174 3174 3174 3173 3173 3173 3172 3171 3171 3170 3169 3168 3168 3166 3165 3164 3164 3163 3163 3163 3163 3163 3163 3163 3163 3163 3163 3164 3164 3164 3164 3164 3164 3164 3164 3164 3164 3164 3163 3163 3163 3163 3163 3163 3162 3162 3162 3162 3161 3161
3156 3156 3156 3157 3157 3159 3160 3161 3163 3164 3165 3166 3167 3167 3168 3168 3169 3169 3169 3170 3171 3172 3172 3173 3173 3173 3173 3173 3173 3173 3173 3173 3174 3174 3174 3174 3174 3174 3174 3174 3174 3173 3173 3172 3171 3170 3170 3169 3168 3167 3166 3166 3165 3165 3164 3164 3164 3164 3164 3165 3165 3165 3165 3166 3166 3166 3166 3165 3165 3165 3165 3165 3165 3165 3164 3164 3164 3164 3164 3163 3163 3163 3162 3162 3162
3155 3156 3156 3156 3157 3158 3159 3160 3162 3163 3164 3165 3166 3167 3167 3168 3168 3169 3169 3170 3171 3172 3173 3173 3173 3173 3173 3173 3173 3173 3173 3174 3174 3174 3174 3175 3175 3175 3175 3175 3175 3174 3174 3173 3172 3172 3171 3170 3169 3169 3168 3167 3167 3166 3166 3166 3166 3166 3166 3166 3166 3167 3167 3167 3167 3167 3167 3167 3167 3166 3166 3166 3166 3166 3166 3166 3165 3165 3165 3165 3164 3164 3163 3163 3163
3154 3155 3155 3156 3156 3157 3158 3159 3161 3162 3164 3165 3166 3166 3167 3167 3168 3169 3170 3171 3172 3172 3173 3173 3173 3173 3173 3173 3173 3173 3174 3174 3174 3175 3175 3175 3175 3175 3176 3176 3176 3175 3175 3174 3173 3173 3172 3172 3171 3170 3170 3169 3168 3168 3167 3167 3167 3167 3167 3168 3168 3168 3168 3168 3168 3168 3168 3168 3168 3168 3167 3167 3167 3167 3167 3167 3167 3166 3166 3166 3165 3165 3165 3164 3164
3153 3154 3155 3155 3156 3156 3157 3158 3160 3161 3163 3164 3165 3166 3167 3167 3167 3168 3170 3171 3172 3172 3172 3172 3173 3173 3173 3173 3173 3173 3174 3174 3175 3175 3175 3175 3176 3176 3176 3176 3176 3176 3176 3175 3175 3174 3174 3173 3172 3172 3171 3171 3170 3169 3169 3168 3168 3168 3169 3169 3169 3169 3169 3169 3169 3168 3168 3169 3169 3169 3169 3168 3168 3168 3168 3168 3168 3168 3167 3167 3166 3166 3166 3166 3166
3152 3153 3153 3154 3154 3155 3156 3157 3159 3161 3163 3164 3165 3166 3166 3166 3167 3168 3169 3171 3171 3172 3172 3172 3173 3173 3173 3173 3173 3173 3174 3174 3175 3175 3175 3176 3176 3176 3177 3177 3177 3177 3177 3176 3176 3175 3175 3174 3173 3173 3173 3172 3172 3171 3170 3170 3170 3170 3170 3170 3170 3170 3170 3170 3170 3170 3170 3170 3170 3170 3170 3170 3169 3170 3170 3170 3170 3169 3169 3168 3168 3168 3168 3168 3168
3150 3151 3152 3152 3153 3154 3155 3157 3159 3160 3162 3163 3164 3165 3165 3166 3167 3168 3169 3170 3170 3171 3171 3172 3172 3173 3173 3173 3173 3173 3174 3174 3174 3175 3176 3176 3176 3177 3177 3178 3178 3178 3178 3177 3177 3176 3176 3175 3175 3175 3174 3174 3173 3173 3172 3172 3171 3171 3171 3171 3172 3172 3172 3172 3172 3172 3172 3171 3171 3171 3171 3171 3171 3171 3172 3172 3171 3171 3170 3170 3170 3170 3170 3170 3170
3148 3149 3150 3150 3152 3153 3155 3156 3158 3160 3161 3162 3163 3164 3165 3165 3166 3167 3168 3169 3169 3170 3171 3171 3172 3172 3173 3173 3173 3173 3173 3174 3174 3175 3176 3176 3177 3177 3178 3179 3179 3179 3178 3178 3178 3177 3177 3176 3176 3176 3176 3175 3175 3175 3174 3174 3173 3173 3173 3174 3173 3173 3173 3173 3174 3174 3173 3173 3173 3173 3173 3173 3173 3173 3173 3173 3173 3173 3172 3172 3171 3172 3172 3172 3172
3146 3147 3148 3149 3151 3153 3155 3156 3158 3159 3161 3162 3162 3163 3164 3165 3166 3167 3167 3168 3168 3169 3170 3171 3172 3172 3173 3173 3173 3173 3173 3173 3174 3175 3176 3176 3177 3178 3178 3179 3179 3179 3179 3179 3179 3178 3178 3178 3178 3177 3177 3177 3177 3176 3176 3176 3176 3176 3176 3176 3176 3175 3175 3175 3176 3175 3175 3175 3174 3175 3175 3174 3175 3175 3175 3175 3175 3174 3174 3173 3173 3173 3174 3174 3173
3145 3146 3147 3149 3151 3153 3155 3157 3158 3159 3160 3160 3161 3162 3163 3164 3165 3166 3166 3167 3167 3168 3169 3170 3171 3172 3172 3172 3172 3172 3173 3173 3174 3175 3175 3176 3177 3178 3179 3179 3180 3180 3180 3180 3179 3179 3179 3179 3179 3179 3178 3178 3178 3178 3177 3177 3178 3178 3178 3178 3178 3177 3177 3178 3177 3177 3176 3176 3176 3176 3176 3176 3176 3177 3177 3177 3176 3176 3176 3175 3175 3175 3175 3175 3175
3145 3145 3147 3149 3151 3154 3156 3157 3158 3158 3159 3159 3160 3161 3162 3163 3164 3165 3165 3165 3166 3167 3169 3170 3171 3171 3171 3171 3172 3172 3172 3172 3173 3174 3175 3176 3177 3178 3179 3179 3180 3180 3180 3180 3180 3180 3180 3180 3180 3179 3179 3179 3179 3179 3179 3179 3179 3179 3179 3179 3179 3179 3179 3179 3179 3178 3178 3178 3178 3178 3178 3178 3178 3178 3178 3178 3178 3178 3178 3177 3177 3177 3177 3177 3177
3145 3146 3148 3150 3152 3154 3155 3156 3156 3157 3157 3158 3159 3160 3161 3162 3162 3163 3164 3165 3166 3167 3169 3169 3169 3170 3171 3171 3171 3171 3171 3172 3173 3174 3175 3176 3177 3178 3179 3179 3180 3180 3180 3180 3181 3181 3181 3180 3180 3180 3180 3180 3180 3180 3180 3180 3180 3181 3181 3181 3181 3181 3181 3181 3181 3180 3179 3179 3179 3179 3179 3180 3180 3180 3180 3180 3180 3180 3179 3179 3179 3178 3178 3178 3178
3147 3148 3150 3152 3153 3154 3154 3154 3155 3155 3156 3157 3158 3160 3160 3160 3161 3162 3163 3165 3166 3167 3168 3168 3169 3169 3170 3170 3170 3171 3171 3172 3173 3174 3175 3176 3177 3178 3179 3179 3180 3180 3180 3181 3181 3181 3181 3181 3181 3181 3181 3181 3181 3181 3181 3181 3182 3182 3182 3182 3182 3182 3182 3182 3182 3181 3181 3181 3181 3181 3181 3182 3182 3182 3181 3181 3181 3181 3181 3181 3180 3180 3180 3180 3180
3149 3150 3152 3153 3153 3153 3153 3153 3153 3154 3155 3156 3158 3159 3159 3160 3161 3162 3164 3165 3166 3166 3167 3167 3168 3169 3169 3169 3170 3170 3171 3171 3172 3173 3174 3175 3176 3178 3178 3179 3179 3180 3180 3181 3181 3182 3182 3181 3181 3181 3181 3181 3181 3181 3182 3182 3183 3183 3183 3183 3183 3183 3183 3183 3183 3183 3183 3183 3183 3183 3183 3183 3183 3183 3183 3183 3182 3182 3182 3182 3182 3181 3181 3181 3181
3151 3151 3152 3152 3152 3152 3152 3152 3153 3154 3155 3157 3158 3158 3159 3160 3161 3163 3164 3165 3165 3165 3166 3167 3167 3168 3168 3168 3169 3169 3170 3171 3171 3172 3173 3174 3176 3177 3177 3178 3179 3180 3180 3181 3181 3182 3182 3181 3181 3182 3182 3182 3182 3182 3182 3183 3183 3184 3184 3184 3184 3184 3184 3184 3184 3184 3184 3184 3184 3184 3184 3184 3184 3184 3184 3184 3184 3183 3183 3183 3183 3183 3183 3182 3182
3151 3151 3152 3152 3152 3152 3152 3153 3154 3155 3157 3158 3159 3159 3160 3161 3162 3163 3163 3164 3164 3164 3165 3166 3166 3167 3167 3168 3168 3168 3169 3170 3170 3171 3172 3174 3176 3176 3177 3178 3178 3179 3180 3181 3181 3182 3182 3181 3182 3182 3182 3182 3182 3182 3182 3183 3184 3185 3185 3185 3185 3185 3185 3185 3185 3185 3185 3185 3185 3185 3185 3185 3185 3185 3185 3185 3185 3185 3184 3184 3184 3184 3184 3184 3183
3152 3152 3152 3152 3152 3152 3153 3154 3155 3157 3158 3159 3159 3159 3160 3161 3162 3162 3163 3163 3163 3164 3164 3165 3165 3166 3166 3166 3167 3168 3168 3169 3170 3170 3171 3173 3175 3175 3176 3177 3177 3178 3179 3180 3181 3181 3181 3181 3182 3182 3182 3182 3182 3181 3182 3183 3184 3185 3185 3185 3185 3185 3186 3186 3186 3186 3186 3186 3186 3186 3186 3186 3186 3186 3186 3186 3186 3185 3185 3185 3185 3185 3185 3184 3184
3153 3152 3152 3153 3153 3154 3154 3155 3156 3157 3158 3158 3158 3159 3160 3161 3161 3161 3162 3162 3162 3163 3163 3164 3164 3165 3165 3165 3166 3167 3167 3168 3169 3170 3170 3172 3174 3174 3175 3176 3176 3177 3178 3179 3180 3181 3181 3181 3182 3182 3182 3182 3181 3181 3181 3183 3184 3185 3185 3185 3185 3185 3186 3186 3187 3187 3187 3187 3187 3187 3187 3187 3187 3187 3187 3186 3186 3186 3186 3186 3186 3185 3185 3185 3185
3152 3152 3153 3154 3155 3155 3156 3156 3157 3157 3157 3157 3157 3158 3159 3160 3160 3160 3161 3161 3162 3162 3163 3163 3164 3164 3164 3165 3165 3166 3166 3167 3168 3169 3170 3171 3172 3173 3174 3175 3176 3177 3178 3179 3179 3180 3181 3181 3181 3182 3182 3182 3181 3181 3181 3183 3184 3185 3185 3185 3185 3185 3186 3186 3187 3187 3187 3187 3187 3187 3187 3187 3187 3187 3187 3187 3187 3186 3186 3186 3186 3186 3185 3185 3185
3153 3153 3153 3154 3155 3155 3155 3156 3156 3156 3155 3155 3155 3156 3157 3158 3158 3159 3160 3160 3161 3162 3162 3163 3163 3164 3164 3164 3164 3165 3165 3166 3167 3168 3169 3170 3171 3172 3172 3173 3175 3176 3177 3178 3178 3179 3180 3181 3181 3181 3181 3181 3181 3181 3181 3182 3184 3185 3185 3185 3186 3186 3186 3186 3187 3187 3187 3187 3187 3187 3187 3187 3187 3187 3186 3186 3187 3186 3186 3186 3186 3186 3186 3185 3185
3153 3153 3154 3154 3155 3155 3154 3154 3155 3155 3154 3153 3152 3153 3154 3156 3157 3158 3159 3160 3160 3161 3161 3162 3163 3163 3163 3163 3163 3164 3164 3165 3166 3167 3168 3169 3170 3170 3171 3172 3173 3175 3176 3177 3178 3178 3179 3180 3180 3181 3181 3181 3181 3181 3181 3182 3183 3184 3185 3185 3186 3186 3186 3186 3186 3186 3187 3187 3187 3187 3187 3187 3187 3186 3186 3186 3186 3186 3186 3186 3186 3186 3186 3185 3185
3151 3152 3153 3154 3154 3154 3154 3154 3154 3154 3153 3152 3152 3152 3153 3154 3155 3156 3158 3159 3160 3160 3161 3161 3161 3162 3162 3162 3162 3163 3163 3164 3165 3166 3166 3167 3168 3169 3170 3171 3172 3174 3175 3176 3177 3177 3178 3179 3180 3180 3180 3181 3181 3180 3180 3181 3182 3183 3185 3185 3185 3185 3186 3186 3186 3186 3186 3186 3186 3187 3186 3186 3186 3186 3186 3186 3186 3186 3186 3186 3186 3186 3185 3185 3185
3149 3150 3151 3153 3154 3153 3153 3153 3153 3152 3152 3151 3151 3152 3152 3153 3154 3155 3156 3158 3159 3159 3160 3160 3160 3160 3160 3161 3161 3162 3163 3163 3164 3165 3165 3166 3167 3167 3168 3169 3171 3172 3174 3175 3176 3177 3177 3178 3179 3179 3180 3180 3180 3180 3180 3181 3181 3182 3184 3184 3185 3185 3185 3185 3185 3185 3185 3185 3185 3185 3185 3186 3186 3185 3185 3185 3185 3185 3185 3185 3185 3185 3185 3185 3185
3147 3148 3150 3151 3152 3151 3151 3151 3151 3150 3150 3150 3150 3151 3152 3152 3153 3154 3155 3157 3158 3158 3159 3159 3159 3159 3159 3160 3160 3161 3162 3162 3163 3164 3165 3165 3166 3166 3167 3168 3169 3171 3173 3174 3175 3175 3176 3177 3178 3179 3179 3180 3180 3180 3180 3180 3180 3181 3183 3184 3184 3184 3184 3184 3184 3184 3184 3183 3183 3183 3184 3184 3184 3185 3184 3184 3185 3185 3185 3185 3184 3184 3184 3184 3184
3146 3147 3148 3149 3149 3149 3149 3149 3148 3148 3148 3149 3149 3150 3151 3151 3152 3153 3154 3155 3156 3157 3158 3158 3158 3158 3158 3159 3160 3160 3161 3161 3162 3163 3164 3164 3165 3165 3166 3167 3168 3170 3172 3173 3173 3174 3175 3176 3177 3178 3178 3178 3179 3179 3179 3179 3179 3180 3182 3183 3183 3183 3183 3183 3183 3182 3181 3181 3181 3181 3182 3182 3183 3183 3184 3184 3184 3184 3184 3184 3184 3184 3184 3184 3184
3145 3146 3146 3147 3148 3147 3147 3147 3147 3147 3147 3147 3148 3149 3150 3151 3151 3152 3153 3153 3154 3155 3156 3157 3157 3157 3158 3158 3159 3159 3160 3161 3161 3162 3163 3163 3164 3164 3165 3166 3167 3168 3170 3171 3172 3173 3174 3175 3176 3176 3177 3177 3178 3179 3178 3177 3178 3179 3180 3181 3182 3182 3181 3181 3181 3180 3179 3178 3178 3179 3179 3180 3181 3182 3182 3183 3183 3183 3183 3183 3183 3183 3183 3183 3183
3143 3144 3145 3146 3146 3146 3146 3146 3146 3145 3145 3146 3147 3148 3149 3150 3151 3151 3152 3152 3153 3154 3155 3156 3156 3157 3157 3157 3158 3158 3159 3160 3160 3161 3162 3162 3163 3163 3164 3165 3166 3167 3169 3170 3171 3172 3173 3174 3175 3175 3176 3177 3178 3178 3177 3176 3178 3179 3180 3180 3180 3180 3180 3179 3178 3177 3176 3176 3175 3176 3177 3178 3179 3180 3181 3181 3182 3182 3182 3182 3182 3182 3182 3182 3182
3142 3142 3143 3144 3144 3144 3144 3145 3145 3144 3144 3145 3146 3147 3148 3150 3150 3150 3151 3152 3153 3153 3154 3154 3155 3156 3156 3156 3157 3157 3158 3158 3159 3160 3161 3161 3162 3162 3163 3164 3165 3166 3167 3169 3170 3171 3172 3173 3173 3174 3175 3176 3177 3177 3176 3176 3177 3179 3179 3179 3179 3179 3178 3177 3176 3175 3174 3174 3174 3174 3175 3176 3177 3178 3179 3180 3180 3180 3181 3181 3181 3181 3181 3181 3181
3141 3141 3142 3142 3142 3142 3143 3143 3143 3143 3143 3144 3145 3147 3148 3149 3149 3150 3151 3152 3152 3153 3153 3153 3154 3154 3155 3156 3156 3156 3157 3158 3158 3159 3160 3160 3161 3161 3162 3163 3164 3165 3166 3167 3169 3170 3171 3171 3172 3173 3174 3175 3176 3176 3176 3175 3176 3177 3178 3178 3177 3177 3176 3175 3175 3174 3173 3173 3173 3173 3174 3174 3175 3176 3177 3178 3178 3179 3179 3179 3179 3180 3180 3180 3180
3140 3140 3141 3141 3141 3141 3141 3142 3142 3142 3142 3143 3145 3146 3148 3148 3149 3149 3150 3151 3152 3153 3153 3153 3153 3153 3154 3155 3155 3155 3156 3157 3157 3158 3159 3159 3160 3161 3161 3162 3164 3164 3165 3166 3168 3169 3170 3170 3171 3173 3173 3173 3175 3175 3175 3175 3175 3176 3176 3176 3175 3175 3174 3174 3174 3173 3173 3173 3172 3172 3173 3173 3174 3175 3175 3176 3176 3177 3177 3178 3178 3179 3179 3179 3179
3139 3139 3139 3139 3139 3139 3140 3140 3141 3141 3142 3143 3144 3146 3147 3148 3148 3149 3150 3151 3151 3152 3152 3152 3152 3153 3153 3154 3154 3155 3155 3155 3156 3157 3158 3158 3159 3160 3160 3162 3163 3164 3165 3166 3167 3168 3169 3169 3170 3172 3172 3172 3173 3174 3175 3175 3175 3175 3175 3174 3174 3173 3173 3173 3173 3172 3172 3172 3172 3172 3172 3172 3173 3173 3174 3174 3175 3175 3176 3176 3177 3177 3177 3177 3177
3138 3138 3138 3138 3138 3138 3139 3139 3140 3140 3140 3142 3144 3145 3145 3146 3147 3148 3149 3149 3150 3151 3151 3152 3152 3152 3152 3153 3153 3154 3154 3154 3155 3156 3157 3157 3158 3159 3160 3161 3162 3163 3164 3165 3166 3167 3168 3168 3169 3171 3171 3172 3172 3173 3174 3174 3174 3174 3174 3173 3172 3172 3172 3172 3171 3172 3172 3172 3171 3172 3172 3172 3172 3172 3173 3173 3174 3174 3175 3175 3175 3176 3176 3176 3176
3136 3136 3136 3136 3137 3137 3138 3138 3138 3139 3139 3141 3143 3143 3143 3144 3145 3146 3147 3147 3148 3149 3150 3150 3151 3151 3151 3152 3152 3153 3153 3153 3154 3155 3156 3156 3157 3158 3159 3160 3161 3163 3164 3165 3166 3167 3167 3167 3168 3170 3171 3171 3171 3172 3173 3173 3173 3173 3173 3172 3171 3171 3171 3171 3171 3171 3171 3171 3171 3171 3171 3171 3171 3172 3172 3172 3173 3173 3174 3174 3174 3175 3175 3175 3175
3135 3135 3135 3135 3135 3136 3136 3136 3136 3136 3137 3140 3141 3141 3141 3143 3144 3144 3145 3146 3147 3148 3148 3149 3149 3150 3150 3151 3151 3151 3151 3152 3153 3154 3155 3156 3157 3158 3159 3160 3160 3162 3163 3164 3165 3166 3167 3167 3167 3169 3170 3170 3170 3170 3171 3172 3172 3172 3171 3171 3171 3171 3171 3170 3170 3170 3170 3170 3170 3170 3170 3170 3170 3171 3171 3171 3172 3172 3173 3173 3174 3174 3174 3174 3174
3134 3134 3134 3134 3134 3135 3135 3134 3134 3134 3135 3139 3140 3138 3140 3142 3142 3142 3143 3144 3145 3146 3146 3147 3147 3148 3149 3149 3149 3149 3150 3151 3152 3153 3154 3155 3156 3157 3158 3159 3159 3161 3162 3163 3164 3165 3166 3165 3166 3167 3169 3169 3169 3169 3170 3171 3171 3171 3170 3169 3169 3170 3170 3169 3169 3169 3169 3169 3169 3169 3169 3170 3170 3170 3170 3170 3171 3171 3172 3173 3173 3174 3174 3174 3174
3133 3134 3134 3134 3134 3134 3133 3132 3132 3132 3135 3138 3137 3135 3138 3140 3139 3139 3140 3141 3142 3143 3144 3145 3146 3147 3147 3148 3148 3148 3149 3150 3151 3152 3153 3154 3155 3156 3157 3158 3159 3160 3161 3162 3162 3163 3164 3164 3165 3166 3168 3168 3168 3167 3168 3169 3170 3170 3169 3169 3168 3169 3168 3168 3168 3168 3168 3168 3168 3168 3169 3169 3169 3169 3169 3170 3170 3171 3171 3172 3173 3173 3173 3173 3173
3133 3133 3133 3133 3133 3132 3131 3130 3130 3132 3134 3136 3135 3135 3137 3138 3137 3136 3136 3137 3139 3141 3143 3144 3145 3145 3146 3146 3147 3147 3148 3149 3150 3151 3152 3153 3154 3155 3156 3157 3158 3159 3160 3160 3161 3162 3163 3164 3164 3165 3167 3167 3167 3166 3166 3167 3169 3169 3169 3168 3168 3168 3168 3168 3167 3167 3167 3168 3168 3168 3168 3168 3168 3168 3168 3169 3169 3170 3170 3171 3172 3173 3173 3173 3173
3132 3133 3132 3132 3132 3131 3130 3129 3129 3131 3132 3133 3135 3136 3135 3135 3135 3135 3134 3136 3137 3138 3141 3142 3143 3144 3144 3145 3146 3146 3147 3148 3149 3150 3151 3152 3153 3154 3155 3156 3157 3158 3159 3159 3160 3161 3162 3163 3164 3164 3165 3166 3166 3166 3166 3166 3167 3169 3169 3168 3168 3168 3168 3167 3167 3167 3167 3167 3167 3167 3168 3168 3168 3168 3168 3168 3169 3169 3170 3171 3172 3172 3172 3172 3172
3132 3132 3131 3131 3131 3130 3128 3128 3129 3130 3131 3132 3133 3133 3132 3133 3134 3134 3133 3134 3135 3136 3138 3140 3141 3142 3143 3144 3145 3145 3146 3147 3148 3149 3151 3151 3152 3153 3154 3155 3156 3157 3158 3158 3159 3160 3160 3162 3163 3163 3163 3165 3166 3166 3166 3165 3166 3167 3168 3168 3167 3167 3167 3166 3166 3166 3166 3167 3167 3167 3168 3168 3168 3168 3168 3168 3169 3169 3170 3170 3171 3172 3172 3172 3172
3131 3131 3130 3129 3129 3128 3127 3127 3128 3129 3129 3130 3131 3129 3129 3131 3131 3131 3131 3133 3135 3136 3138 3138 3138 3140 3141 3142 3143 3144 3145 3146 3147 3149 3150 3151 3151 3152 3153 3154 3155 3156 3156 3157 3158 3159 3159 3160 3160 3161 3162 3163 3165 3165 3165 3165 3165 3165 3166 3167 3166 3166 3166 3166 3166 3166 3166 3167 3167 3167 3167 3168 3168 3168 3168 3168 3169 3169 3170 3170 3171 3171 3172 3172 3172
3129 3129 3129 3128 3128 3127 3126 3127 3127 3128 3128 3129 3129 3127 3127 3129 3130 3128 3129 3131 3133 3135 3137 3136 3136 3138 3140 3141 3142 3143 3144 3145 3147 3148 3149 3150 3150 3151 3152 3153 3154 3155 3156 3156 3157 3158 3158 3158 3158 3159 3160 3161 3163 3164 3164 3165 3165 3164 3165 3166 3166 3166 3166 3166 3166 3165 3166 3166 3166 3167 3167 3167 3168 3168 3168 3168 3169 3169 3170 3170 3171 3171 3171 3171 3171
3128 3128 3127 3126 3126 3126 3126 3126 3127 3127 3128 3128 3127 3126 3126 3128 3128 3127 3128 3129 3131 3133 3135 3135 3135 3137 3139 3140 3141 3142 3143 3144 3146 3147 3148 3149 3149 3150 3151 3152 3153 3154 3155 3155 3156 3157 3157 3157 3157 3158 3159 3160 3161 3162 3163 3164 3164 3164 3164 3165 3165 3165 3165 3165 3165 3165 3165 3166 3166 3166 3166 3167 3168 3168 3168 3169 3169 3169 3170 3170 3171 3171 3172 3172 3172
3126 3125 3125 3124 3124 3125 3125 3125 3125 3126 3126 3126 3125 3124 3124 3125 3126 3126 3127 3128 3130 3132 3133 3134 3135 3137 3138 3139 3140 3141 3142 3143 3145 3146 3147 3148 3148 3149 3150 3151 3152 3153 3153 3154 3155 3155 3156 3157 3157 3158 3158 3158 3159 3161 3162 3163 3163 3163 3164 3165 3165 3165 3165 3165 3165 3165 3165 3166 3166 3166 3167 3167 3168 3168 3169 3169 3169 3169 3170 3171 3171 3171 3172 3172 3172
3123 3123 3122 3122 3122 3123 3123 3124 3124 3124 3125 3125 3124 3123 3123 3123 3124 3125 3126 3128 3130 3131 3132 3134 3135 3136 3136 3137 3138 3139 3141 3142 3144 3145 3146 3147 3147 3148 3149 3150 3150 3151 3152 3153 3154 3154 3154 3155 3156 3157 3158 3158 3159 3160 3161 3162 3162 3163 3163 3164 3164 3164 3164 3165 3165 3165 3165 3166 3166 3166 3167 3167 3167 3168 3168 3169 3169 3169 3170 3171 3171 3171 3171 3172 3172
3120 3119 3119 3120 3120 3121 3121 3122 3123 3123 3123 3123 3123 3123 3122 3123 3124 3125 3126 3128 3130 3131 3131 3132 3134 3134 3134 3135 3137 3138 3140 3141 3143 3144 3145 3145 3146 3147 3148 3148 3149 3150 3151 3152 3152 3153 3153 3154 3155 3156 3157 3158 3159 3159 3160 3161 3162 3163 3163 3164 3164 3164 3164 3165 3165 3165 3165 3166 3166 3167 3167 3167 3167 3167 3168 3169 3169 3170 3170 3170 3171 3171 3171 3171 3172
3117 3116 3116 3117 3118 3119 3120 3121 3121 3121 3121 3121 3122 3122 3122 3122 3123 3124 3125 3128 3129 3130 3131 3132 3133 3133 3132 3134 3136 3137 3139 3140 3141 3142 3143 3144 3145 3145 3146 3147 3148 3149 3149 3150 3151 3152 3152 3153 3154 3155 3156 3157 3158 3159 3160 3161 3162 3162 3163 3163 3163 3164 3164 3165 3165 3165 3166 3166 3166 3166 3166 3167 3167 3167 3168 3169 3169 3170 3170 3170 3170 3171 3171 3172 3172
3113 3113 3113 3114 3116 3117 3118 3118 3118 3118 3119 3120 3120 3121 3121 3121 3122 3123 3124 3126 3128 3129 3130 3131 3132 3132 3131 3132 3134 3136 3138 3139 3140 3141 3142 3143 3144 3144 3145 3146 3147 3147 3148 3148 3149 3150 3151 3152 3153 3154 3154 3156 3157 3158 3159 3160 3161 3161 3162 3162 3162 3163 3164 3164 3164 3165 3165 3166 3166 3166 3166 3166 3167 3167 3168 3169 3169 3170 3170 3170 3170 3171 3171 3172 3172
3109 3110 3110 3112 3115 3116 3116 3116 3117 3118 3119 3119 3120 3120 3120 3120 3121 3122 3123 3125 3126 3127 3129 3130 3130 3131 3131 3132 3133 3134 3135 3136 3138 3139 3140 3142 3142 3143 3144 3144 3145 3145 3146 3147 3148 3149 3150 3151 3152 3153 3154 3155 3156 3157 3158 3158 3159 3160 3161 3161 3162 3162 3163 3163 3164 3164 3164 3165 3165 3166 3166 3166 3167 3167 3168 3168 3169 3169 3170 3170 3170 3170 3171 3171 3171